| time (UTC) | temp C | wind direction | speed KPH | gust KPH | rain 1hr cm | rain 24hr cm | rain mn cm | humidity % | barometer mb |
| 20260507000528 | 13 | 0 | 0.0 | 4.8 | 0.00 | 0.20 | 0.20 | 93 | 1007.8 |
| 20260507000054 | 13 | 23 | 0.0 | 3.2 | 0.00 | 0.20 | 0.20 | 92 | 1007.7 |
| 20260506235532 | 13 | 0 | 0.0 | 3.2 | 0.00 | 0.20 | 0.20 | 93 | 1007.8 |
| 20260506235032 | 13 | 160 | 0.0 | 3.2 | 0.00 | 0.20 | 0.20 | 92 | 1007.8 |
| 20260506234601 | 13 | 0 | 0.0 | 3.2 | 0.00 | 0.20 | 0.20 | 93 | 1007.9 |
| 20260506234031 | 13 | 0 | 0.0 | 6.4 | 0.00 | 0.20 | 0.20 | 93 | 1007.8 |
| 20260506233529 | 13 | 0 | 1.6 | 6.4 | 0.00 | 0.20 | 0.20 | 93 | 1007.8 |
| 20260506233048 | 13 | 273 | 1.6 | 6.4 | 0.00 | 0.20 | 0.20 | 93 | 1007.7 |
| 20260506232529 | 13 | 191 | 0.0 | 6.4 | 0.00 | 0.20 | 0.20 | 92 | 1007.7 |
| 20260506232029 | 13 | 249 | 0.0 | 6.4 | 0.00 | 0.20 | 0.20 | 92 | 1007.6 |
| 20260506231544 | 13 | 101 | 0.0 | 6.4 | 0.00 | 0.20 | 0.20 | 92 | 1007.6 |
| 20260506231029 | 13 | 0 | 0.0 | 6.4 | 0.00 | 0.20 | 0.20 | 93 | 1007.6 |
| 20260506230531 | 13 | 96 | 0.0 | 4.8 | 0.00 | 0.20 | 0.20 | 92 | 1007.5 |
| 20260506230052 | 13 | 169 | 0.0 | 4.8 | 0.00 | 0.20 | 0.20 | 92 | 1007.5 |
| 20260506225531 | 13 | 110 | 1.6 | 4.8 | 0.00 | 0.20 | 0.20 | 92 | 1007.4 |
| 20260506225031 | 13 | 111 | 1.6 | 4.8 | 0.00 | 0.20 | 0.20 | 92 | 1007.3 |
| 20260506224552 | 13 | 232 | 0.0 | 4.8 | 0.00 | 0.20 | 0.20 | 93 | 1007.4 |
| 20260506224031 | 13 | 0 | 0.0 | 4.8 | 0.00 | 0.20 | 0.20 | 92 | 1007.3 |
| 20260506223528 | 13 | 0 | 0.0 | 6.4 | 0.00 | 0.20 | 0.20 | 92 | 1007.3 |
| 20260506223042 | 13 | 136 | 1.6 | 6.4 | 0.00 | 0.20 | 0.20 | 92 | 1007.3 |
| 20260506222531 | 13 | 134 | 0.0 | 6.4 | 0.00 | 0.20 | 0.20 | 92 | 1007.2 |
| 20260506222036 | 13 | 0 | 0.0 | 6.4 | 0.00 | 0.20 | 0.20 | 92 | 1007.3 |
| 20260506221552 | 13 | 131 | 0.0 | 9.7 | 0.00 | 0.20 | 0.20 | 92 | 1007.2 |
| 20260506221033 | 13 | 245 | 1.6 | 9.7 | 0.00 | 0.20 | 0.20 | 92 | 1007.3 |
| 20260506220529 | 13 | 254 | 1.6 | 8.0 | 0.00 | 0.20 | 0.20 | 92 | 1007.3 |
| 20260506220046 | 13 | 0 | 1.6 | 6.4 | 0.00 | 0.20 | 0.20 | 92 | 1007.3 |
| 20260506215531 | 13 | 0 | 0.0 | 9.7 | 0.00 | 0.20 | 0.20 | 92 | 1007.3 |
| 20260506215028 | 13 | 72 | 0.0 | 9.7 | 0.00 | 0.20 | 0.20 | 92 | 1007.3 |
| 20260506214537 | 13 | 0 | 1.6 | 9.7 | 0.00 | 0.20 | 0.20 | 92 | 1007.2 |
| 20260506214032 | 13 | 239 | 1.6 | 9.7 | 0.03 | 0.20 | 0.20 | 92 | 1007.2 |
| 20260506213532 | 13 | 198 | 1.6 | 9.7 | 0.03 | 0.20 | 0.20 | 92 | 1007.2 |
| 20260506213048 | 13 | 115 | 1.6 | 6.4 | 0.03 | 0.20 | 0.20 | 92 | 1007.1 |
| 20260506212529 | 13 | 134 | 0.0 | 8.0 | 0.03 | 0.20 | 0.20 | 92 | 1007.1 |
| 20260506212034 | 13 | 145 | 0.0 | 8.0 | 0.03 | 0.20 | 0.20 | 92 | 1007.1 |
| 20260506211549 | 14 | 101 | 1.6 | 8.0 | 0.03 | 0.20 | 0.20 | 92 | 1007.1 |
| 20260506211031 | 14 | 274 | 1.6 | 6.4 | 0.03 | 0.20 | 0.20 | 92 | 1007.2 |
| 20260506210529 | 14 | 102 | 1.6 | 6.4 | 0.03 | 0.20 | 0.20 | 92 | 1007.1 |
| 20260506210050 | 14 | 142 | 1.6 | 8.0 | 0.03 | 0.20 | 0.20 | 92 | 1007.1 |
| 20260506205529 | 14 | 151 | 1.6 | 8.0 | 0.03 | 0.20 | 0.20 | 92 | 1007.2 |
| 20260506205032 | 14 | 116 | 1.6 | 11.3 | 0.03 | 0.20 | 0.20 | 92 | 1007.3 |
| 20260506204539 | 14 | 249 | 0.0 | 11.3 | 0.03 | 0.20 | 0.20 | 92 | 1007.4 |
| 20260506204028 | 14 | 172 | 1.6 | 6.4 | 0.00 | 0.18 | 0.18 | 91 | 1007.5 |
| 20260506203529 | 14 | 104 | 1.6 | 8.0 | 0.00 | 0.18 | 0.18 | 91 | 1007.5 |
| 20260506203045 | 14 | 230 | 0.0 | 8.0 | 0.00 | 0.18 | 0.18 | 91 | 1007.6 |
| 20260506202529 | 14 | 302 | 1.6 | 4.8 | 0.00 | 0.18 | 0.18 | 91 | 1007.5 |
| 20260506202029 | 14 | 0 | 1.6 | 14.5 | 0.00 | 0.18 | 0.18 | 90 | 1007.6 |
| 20260506201545 | 14 | 235 | 0.0 | 14.5 | 0.00 | 0.18 | 0.18 | 90 | 1007.6 |
| 20260506201032 | 14 | 191 | 3.2 | 14.5 | 0.00 | 0.18 | 0.18 | 90 | 1007.6 |
| 20260506200534 | 14 | 273 | 0.0 | 9.7 | 0.00 | 0.18 | 0.18 | 90 | 1007.6 |
| 20260506200046 | 14 | 239 | 1.6 | 9.7 | 0.00 | 0.18 | 0.18 | 89 | 1007.5 |
| 20260506195529 | 14 | 252 | 3.2 | 9.7 | 0.00 | 0.18 | 0.18 | 90 | 1007.6 |
| 20260506195029 | 14 | 143 | 1.6 | 6.4 | 0.00 | 0.18 | 0.18 | 90 | 1007.6 |
| 20260506194540 | 14 | 311 | 1.6 | 6.4 | 0.00 | 0.18 | 0.18 | 90 | 1007.7 |
| 20260506194031 | 14 | 0 | 1.6 | 11.3 | 0.00 | 0.18 | 0.18 | 90 | 1007.7 |
| 20260506193528 | 14 | 46 | 1.6 | 11.3 | 0.03 | 0.18 | 0.18 | 90 | 1007.8 |
| 20260506193050 | 14 | 254 | 3.2 | 11.3 | 0.03 | 0.18 | 0.18 | 90 | 1007.9 |
| 20260506192530 | 14 | 229 | 1.6 | 11.3 | 0.03 | 0.18 | 0.18 | 90 | 1007.9 |
| 20260506192028 | 14 | 89 | 1.6 | 16.1 | 0.05 | 0.18 | 0.18 | 90 | 1007.9 |
| 20260506191543 | 14 | 221 | 4.8 | 16.1 | 0.05 | 0.18 | 0.18 | 90 | 1008.0 |
| 20260506191029 | 14 | 339 | 3.2 | 11.3 | 0.08 | 0.18 | 0.18 | 90 | 1008.1 |
| 20260506190555 | 14 | 242 | 3.2 | 12.9 | 0.08 | 0.18 | 0.18 | 90 | 1008.1 |
| 20260506190042 | 14 | 214 | 3.2 | 12.9 | 0.08 | 0.18 | 0.18 | 90 | 1008.1 |
| 20260506185531 | 14 | 103 | 3.2 | 12.9 | 0.08 | 0.18 | 0.18 | 90 | 1008.1 |
| 20260506185031 | 14 | 251 | 3.2 | 12.9 | 0.08 | 0.18 | 0.18 | 90 | 1008.3 |
| 20260506184541 | 14 | 176 | 3.2 | 11.3 | 0.08 | 0.18 | 0.18 | 90 | 1008.3 |
| 20260506184031 | 14 | 257 | 1.6 | 14.5 | 0.08 | 0.15 | 0.15 | 91 | 1008.3 |
| 20260506183532 | 14 | 136 | 1.6 | 14.5 | 0.08 | 0.15 | 0.15 | 90 | 1008.3 |
| 20260506183044 | 14 | 287 | 3.2 | 16.1 | 0.08 | 0.15 | 0.15 | 90 | 1008.5 |
| 20260506182532 | 14 | 354 | 3.2 | 16.1 | 0.10 | 0.15 | 0.15 | 90 | 1008.7 |
| 20260506182032 | 14 | 42 | 3.2 | 12.9 | 0.08 | 0.13 | 0.13 | 90 | 1008.8 |
| 20260506181543 | 14 | 201 | 1.6 | 8.0 | 0.10 | 0.13 | 0.13 | 90 | 1008.6 |
| 20260506181033 | 14 | 216 | 1.6 | 8.0 | 0.08 | 0.10 | 0.10 | 89 | 1008.5 |
| 20260506180532 | 15 | 153 | 0.0 | 11.3 | 0.08 | 0.10 | 0.10 | 90 | 1008.6 |
| 20260506180044 | 15 | 164 | 1.6 | 11.3 | 0.08 | 0.10 | 0.10 | 90 | 1008.4 |
| 20260506175531 | 15 | 110 | 1.6 | 9.7 | 0.10 | 0.10 | 0.10 | 89 | 1008.3 |
| 20260506175031 | 15 | 134 | 3.2 | 16.1 | 0.10 | 0.10 | 0.10 | 89 | 1008.5 |
| 20260506174542 | 15 | 287 | 3.2 | 16.1 | 0.10 | 0.10 | 0.10 | 89 | 1008.7 |
| 20260506174035 | 15 | 75 | 1.6 | 6.4 | 0.08 | 0.08 | 0.08 | 89 | 1008.7 |
| 20260506173534 | 15 | 93 | 0.0 | 4.8 | 0.08 | 0.08 | 0.08 | 89 | 1008.9 |
| 20260506173104 | 15 | 128 | 0.0 | 6.4 | 0.05 | 0.05 | 0.05 | 88 | 1009.2 |
| 20260506172532 | 15 | 102 | 1.6 | 6.4 | 0.05 | 0.05 | 0.05 | 88 | 1009.3 |
| 20260506172031 | 15 | 92 | 1.6 | 8.0 | 0.05 | 0.05 | 0.05 | 87 | 1009.4 |
| 20260506171546 | 15 | 216 | 0.0 | 9.7 | 0.03 | 0.03 | 0.03 | 87 | 1009.4 |
| 20260506171032 | 15 | 213 | 1.6 | 9.7 | 0.03 | 0.03 | 0.03 | 86 | 1009.7 |
| 20260506170531 | 15 | 276 | 1.6 | 9.7 | 0.03 | 0.03 | 0.03 | 85 | 1009.9 |
| 20260506170103 | 15 | 238 | 3.2 | 11.3 | 0.03 | 0.03 | 0.03 | 84 | 1009.8 |
| 20260506165533 | 15 | 255 | 1.6 | 16.1 | 0.00 | 0.00 | 0.00 | 84 | 1009.7 |
| 20260506165034 | 16 | 125 | 3.2 | 16.1 | 0.00 | 0.00 | 0.00 | 82 | 1009.8 |
| 20260506164543 | 16 | 47 | 3.2 | 11.3 | 0.00 | 0.00 | 0.00 | 81 | 1009.9 |
| 20260506164034 | 16 | 225 | 3.2 | 19.3 | 0.00 | 0.00 | 0.00 | 80 | 1009.9 |
| 20260506163531 | 16 | 194 | 3.2 | 19.3 | 0.00 | 0.00 | 0.00 | 78 | 1009.9 |
| 20260506163053 | 17 | 252 | 4.8 | 19.3 | 0.00 | 0.00 | 0.00 | 77 | 1009.8 |
| 20260506162537 | 17 | 240 | 3.2 | 14.5 | 0.00 | 0.00 | 0.00 | 77 | 1009.8 |
| 20260506162031 | 17 | 226 | 3.2 | 14.5 | 0.00 | 0.00 | 0.00 | 76 | 1009.8 |
| 20260506161542 | 17 | 281 | 4.8 | 14.5 | 0.00 | 0.00 | 0.00 | 76 | 1009.8 |
| 20260506161035 | 17 | 159 | 3.2 | 16.1 | 0.00 | 0.00 | 0.00 | 75 | 1009.8 |
| 20260506160532 | 17 | 224 | 3.2 | 16.1 | 0.00 | 0.00 | 0.00 | 76 | 1009.9 |
| 20260506160042 | 17 | 205 | 1.6 | 16.1 | 0.00 | 0.00 | 0.00 | 76 | 1010.2 |
| 20260506155531 | 17 | 266 | 3.2 | 14.5 | 0.00 | 0.00 | 0.00 | 75 | 1010.2 |
| 20260506155033 | 17 | 243 | 3.2 | 14.5 | 0.00 | 0.00 | 0.00 | 75 | 1010.1 |
| 20260506154547 | 17 | 70 | 3.2 | 14.5 | 0.00 | 0.00 | 0.00 | 76 | 1010.2 |
| 20260506154031 | 17 | 250 | 4.8 | 14.5 | 0.00 | 0.00 | 0.00 | 76 | 1010.4 |
| 20260506153532 | 17 | 233 | 4.8 | 12.9 | 0.00 | 0.00 | 0.00 | 76 | 1010.5 |
| 20260506153043 | 17 | 225 | 3.2 | 17.7 | 0.00 | 0.00 | 0.00 | 76 | 1010.4 |
| 20260506152529 | 17 | 282 | 4.8 | 17.7 | 0.00 | 0.00 | 0.00 | 76 | 1010.2 |
| 20260506152033 | 17 | 172 | 3.2 | 17.7 | 0.00 | 0.00 | 0.00 | 75 | 1010.1 |
| 20260506151543 | 17 | 269 | 4.8 | 16.1 | 0.00 | 0.00 | 0.00 | 76 | 1010.1 |
| 20260506151030 | 17 | 238 | 3.2 | 16.1 | 0.00 | 0.00 | 0.00 | 76 | 1010.1 |
| 20260506150531 | 17 | 81 | 3.2 | 12.9 | 0.00 | 0.00 | 0.00 | 75 | 1010.2 |
| 20260506150043 | 17 | 226 | 4.8 | 12.9 | 0.00 | 0.00 | 0.00 | 75 | 1010.2 |
| 20260506145536 | 17 | 201 | 3.2 | 14.5 | 0.00 | 0.00 | 0.00 | 74 | 1010.1 |
| 20260506145033 | 17 | 147 | 4.8 | 17.7 | 0.00 | 0.00 | 0.00 | 74 | 1010.0 |
| 20260506144544 | 18 | 2 | 4.8 | 20.9 | 0.00 | 0.00 | 0.00 | 73 | 1010.1 |
| 20260506144033 | 18 | 190 | 3.2 | 20.9 | 0.00 | 0.00 | 0.00 | 73 | 1010.2 |
| 20260506143533 | 18 | 245 | 6.4 | 20.9 | 0.00 | 0.00 | 0.00 | 73 | 1010.2 |
| 20260506143044 | 18 | 165 | 4.8 | 20.9 | 0.00 | 0.00 | 0.00 | 72 | 1010.3 |
| 20260506142533 | 18 | 238 | 3.2 | 20.9 | 0.00 | 0.00 | 0.00 | 73 | 1010.3 |
| 20260506142031 | 18 | 250 | 6.4 | 19.3 | 0.00 | 0.00 | 0.00 | 73 | 1010.2 |
| 20260506141545 | 18 | 46 | 6.4 | 27.4 | 0.00 | 0.00 | 0.00 | 73 | 1010.2 |
| 20260506141032 | 18 | 127 | 6.4 | 27.4 | 0.00 | 0.00 | 0.00 | 73 | 1010.2 |
| 20260506140532 | 18 | 260 | 3.2 | 14.5 | 0.00 | 0.00 | 0.00 | 74 | 1010.4 |
| 20260506140043 | 18 | 213 | 4.8 | 14.5 | 0.00 | 0.00 | 0.00 | 74 | 1010.4 |
| 20260506135531 | 18 | 245 | 3.2 | 22.5 | 0.00 | 0.00 | 0.00 | 74 | 1010.6 |
| 20260506135031 | 18 | 252 | 4.8 | 22.5 | 0.00 | 0.00 | 0.00 | 74 | 1010.4 |
| 20260506134543 | 17 | 250 | 4.8 | 16.1 | 0.00 | 0.00 | 0.00 | 77 | 1010.4 |
| 20260506134031 | 17 | 264 | 4.8 | 17.7 | 0.00 | 0.00 | 0.00 | 76 | 1010.3 |
| 20260506133531 | 17 | 263 | 6.4 | 17.7 | 0.00 | 0.00 | 0.00 | 76 | 1010.3 |
| 20260506133101 | 17 | 56 | 6.4 | 17.7 | 0.00 | 0.00 | 0.00 | 77 | 1010.1 |
| 20260506132532 | 17 | 249 | 4.8 | 14.5 | 0.00 | 0.00 | 0.00 | 78 | 1010.3 |
| 20260506132035 | 17 | 337 | 3.2 | 16.1 | 0.00 | 0.00 | 0.00 | 78 | 1010.3 |
| 20260506131545 | 16 | 230 | 3.2 | 16.1 | 0.00 | 0.00 | 0.00 | 78 | 1010.3 |
| 20260506131034 | 16 | 243 | 3.2 | 14.5 | 0.00 | 0.00 | 0.00 | 78 | 1010.2 |
| 20260506130533 | 16 | 129 | 3.2 | 14.5 | 0.00 | 0.00 | 0.00 | 78 | 1010.2 |
| 20260506130044 | 17 | 297 | 3.2 | 14.5 | 0.00 | 0.00 | 0.00 | 78 | 1010.3 |
| 20260506125531 | 17 | 76 | 3.2 | 9.7 | 0.00 | 0.00 | 0.00 | 78 | 1010.3 |
| 20260506125031 | 17 | 129 | 1.6 | 14.5 | 0.00 | 0.00 | 0.00 | 79 | 1010.3 |
| 20260506124543 | 17 | 235 | 4.8 | 14.5 | 0.00 | 0.00 | 0.00 | 78 | 1010.4 |
| 20260506124031 | 17 | 221 | 3.2 | 12.9 | 0.00 | 0.00 | 0.00 | 78 | 1010.6 |
| 20260506123532 | 17 | 179 | 3.2 | 17.7 | 0.00 | 0.00 | 0.00 | 78 | 1010.7 |
| 20260506123043 | 16 | 239 | 3.2 | 17.7 | 0.00 | 0.00 | 0.00 | 79 | 1010.9 |
| 20260506122532 | 16 | 162 | 4.8 | 17.7 | 0.00 | 0.00 | 0.00 | 79 | 1011.0 |
| 20260506122032 | 16 | 243 | 4.8 | 17.7 | 0.00 | 0.00 | 0.00 | 80 | 1010.9 |
| 20260506121539 | 16 | 114 | 3.2 | 11.3 | 0.00 | 0.00 | 0.00 | 81 | 1010.8 |
| 20260506121034 | 16 | 99 | 3.2 | 9.7 | 0.00 | 0.00 | 0.00 | 80 | 1010.8 |
| 20260506120532 | 16 | 228 | 1.6 | 9.7 | 0.00 | 0.00 | 0.00 | 82 | 1010.8 |
| 20260506120045 | 15 | 224 | 3.2 | 9.7 | 0.00 | 0.00 | 0.00 | 83 | 1010.7 |
| 20260506115532 | 15 | 233 | 3.2 | 9.7 | 0.00 | 0.00 | 0.00 | 84 | 1010.7 |
| 20260506115031 | 15 | 75 | 3.2 | 8.0 | 0.00 | 0.00 | 0.00 | 84 | 1010.8 |
| 20260506114540 | 15 | 231 | 3.2 | 8.0 | 0.00 | 0.00 | 0.00 | 84 | 1010.7 |
| 20260506114032 | 15 | 247 | 1.6 | 16.1 | 0.00 | 0.00 | 0.00 | 84 | 1010.7 |
| 20260506113531 | 15 | 240 | 3.2 | 16.1 | 0.00 | 0.00 | 0.00 | 85 | 1010.7 |
| 20260506113042 | 14 | 83 | 3.2 | 9.7 | 0.00 | 0.00 | 0.00 | 86 | 1010.7 |
| 20260506112531 | 14 | 233 | 1.6 | 14.5 | 0.00 | 0.00 | 0.00 | 86 | 1010.8 |
| 20260506112029 | 13 | 289 | 1.6 | 14.5 | 0.00 | 0.00 | 0.00 | 86 | 1010.7 |
| 20260506111543 | 13 | 230 | 1.6 | 14.5 | 0.00 | 0.00 | 0.00 | 86 | 1010.8 |
| 20260506111031 | 13 | 248 | 1.6 | 8.0 | 0.00 | 0.00 | 0.00 | 87 | 1011.0 |
| 20260506110532 | 13 | 117 | 0.0 | 8.0 | 0.00 | 0.00 | 0.00 | 87 | 1011.0 |
| 20260506110043 | 13 | 301 | 1.6 | 8.0 | 0.00 | 0.00 | 0.00 | 87 | 1011.0 |
| 20260506105532 | 13 | 121 | 1.6 | 6.4 | 0.00 | 0.00 | 0.00 | 87 | 1010.9 |
| 20260506105033 | 13 | 271 | 1.6 | 6.4 | 0.00 | 0.00 | 0.00 | 88 | 1010.8 |
| 20260506104608 | 13 | 0 | 1.6 | 9.7 | 0.00 | 0.00 | 0.00 | 88 | 1010.8 |
| 20260506104034 | 13 | 237 | 1.6 | 9.7 | 0.00 | 0.00 | 0.00 | 88 | 1010.9 |
| 20260506103533 | 13 | 248 | 0.0 | 4.8 | 0.00 | 0.00 | 0.00 | 88 | 1010.9 |
| 20260506103041 | 13 | 144 | 0.0 | 4.8 | 0.00 | 0.00 | 0.00 | 89 | 1010.9 |
| 20260506102533 | 12 | 0 | 0.0 | 4.8 | 0.00 | 0.00 | 0.00 | 89 | 1010.9 |
| 20260506102032 | 12 | 115 | 0.0 | 4.8 | 0.00 | 0.00 | 0.00 | 88 | 1010.9 |
| 20260506101548 | 12 | 91 | 0.0 | 4.8 | 0.00 | 0.00 | 0.00 | 88 | 1010.8 |
| 20260506101033 | 12 | 127 | 0.0 | 4.8 | 0.00 | 0.00 | 0.00 | 88 | 1010.7 |
| 20260506100531 | 12 | 296 | 0.0 | 6.4 | 0.00 | 0.00 | 0.00 | 88 | 1010.8 |
| 20260506100045 | 12 | 0 | 0.0 | 6.4 | 0.00 | 0.00 | 0.00 | 88 | 1010.8 |
| 20260506095531 | 12 | 0 | 0.0 | 4.8 | 0.00 | 0.00 | 0.00 | 88 | 1010.7 |
| 20260506095032 | 13 | 0 | 0.0 | 9.7 | 0.00 | 0.00 | 0.00 | 87 | 1010.7 |
| 20260506094540 | 13 | 120 | 0.0 | 9.7 | 0.00 | 0.00 | 0.00 | 87 | 1010.7 |
| 20260506094032 | 13 | 238 | 1.6 | 8.0 | 0.00 | 0.00 | 0.00 | 87 | 1010.6 |
| 20260506093533 | 13 | 218 | 1.6 | 8.0 | 0.00 | 0.00 | 0.00 | 87 | 1010.6 |
| 20260506093044 | 13 | 269 | 1.6 | 6.4 | 0.00 | 0.00 | 0.00 | 87 | 1010.6 |
| 20260506092532 | 13 | 131 | 1.6 | 9.7 | 0.00 | 0.00 | 0.00 | 87 | 1010.7 |
| 20260506092033 | 13 | 60 | 0.0 | 9.7 | 0.00 | 0.00 | 0.00 | 87 | 1010.8 |
| 20260506091536 | 13 | 238 | 1.6 | 11.3 | 0.00 | 0.00 | 0.00 | 87 | 1010.7 |
| 20260506091035 | 13 | 216 | 3.2 | 11.3 | 0.00 | 0.00 | 0.00 | 87 | 1010.8 |
| 20260506090533 | 13 | 228 | 0.0 | 4.8 | 0.00 | 0.00 | 0.00 | 87 | 1010.8 |
| 20260506090047 | 13 | 243 | 0.0 | 8.0 | 0.00 | 0.00 | 0.00 | 87 | 1010.8 |
| 20260506085532 | 13 | 252 | 0.0 | 9.7 | 0.00 | 0.00 | 0.00 | 86 | 1010.9 |
| 20260506085031 | 13 | 0 | 1.6 | 9.7 | 0.00 | 0.00 | 0.00 | 86 | 1010.9 |
| 20260506084544 | 13 | 86 | 1.6 | 6.4 | 0.00 | 0.00 | 0.00 | 86 | 1011.0 |
| 20260506084033 | 13 | 236 | 0.0 | 6.4 | 0.00 | 0.00 | 0.00 | 86 | 1010.9 |
| 20260506083532 | 13 | 276 | 1.6 | 11.3 | 0.00 | 0.00 | 0.00 | 86 | 1011.0 |
| 20260506083043 | 13 | 109 | 0.0 | 11.3 | 0.00 | 0.00 | 0.00 | 86 | 1010.9 |
| 20260506082533 | 13 | 254 | 3.2 | 9.7 | 0.00 | 0.00 | 0.00 | 86 | 1010.9 |
| 20260506082032 | 13 | 248 | 1.6 | 9.7 | 0.00 | 0.00 | 0.00 | 85 | 1010.9 |
| 20260506081537 | 13 | 247 | 1.6 | 9.7 | 0.00 | 0.00 | 0.00 | 85 | 1010.9 |
| 20260506081032 | 13 | 213 | 3.2 | 12.9 | 0.00 | 0.00 | 0.00 | 85 | 1010.8 |
| 20260506080533 | 13 | 266 | 1.6 | 16.1 | 0.00 | 0.00 | 0.00 | 85 | 1010.9 |
| 20260506073042 | 13 | 27 | 1.6 | 11.3 | 0.00 | 0.00 | 0.00 | 84 | 1011.0 |
| 20260506072531 | 13 | 261 | 1.6 | 11.3 | 0.00 | 0.00 | 0.00 | 83 | 1010.9 |
| 20260506072032 | 13 | 126 | 3.2 | 9.7 | 0.00 | 0.00 | 0.00 | 84 | 1011.0 |
| 20260506071540 | 13 | 204 | 3.2 | 20.9 | 0.00 | 0.00 | 0.00 | 83 | 1011.1 |
| 20260506071032 | 13 | 206 | 1.6 | 20.9 | 0.00 | 0.00 | 0.00 | 83 | 1011.1 |
| 20260506070532 | 14 | 193 | 0.0 | 11.3 | 0.00 | 0.00 | 0.00 | 83 | 1011.1 |
| 20260506062032 | 14 | 143 | 1.6 | 12.9 | 0.00 | 0.00 | 0.00 | 82 | 1010.8 |
| 20260506061543 | 14 | 237 | 1.6 | 9.7 | 0.00 | 0.00 | 0.00 | 81 | 1010.9 |
| 20260506061034 | 14 | 227 | 3.2 | 9.7 | 0.00 | 0.00 | 0.00 | 81 | 1010.8 |
| 20260506060533 | 14 | 297 | 1.6 | 8.0 | 0.00 | 0.00 | 0.00 | 81 | 1010.9 |
| 20260506051032 | 15 | 59 | 1.6 | 8.0 | 0.00 | 0.00 | 0.00 | 79 | 1011.4 |
| 20260506050533 | 15 | 257 | 1.6 | 8.0 | 0.00 | 0.00 | 0.00 | 79 | 1011.3 |
| 20260506045031 | 15 | 206 | 1.6 | 9.7 | 0.00 | 0.00 | 0.00 | 78 | 1011.4 |
| 20260506044545 | 15 | 161 | 1.6 | 14.5 | 0.00 | 0.00 | 0.00 | 78 | 1011.3 |
| 20260506044032 | 15 | 274 | 3.2 | 14.5 | 0.00 | 0.00 | 0.00 | 78 | 1011.3 |
| 20260506043532 | 15 | 103 | 0.0 | 9.7 | 0.00 | 0.00 | 0.00 | 78 | 1011.3 |
| 20260506043052 | 15 | 205 | 1.6 | 8.0 | 0.00 | 0.00 | 0.00 | 78 | 1011.4 |
| 20260506042532 | 15 | 240 | 0.0 | 8.0 | 0.00 | 0.00 | 0.00 | 78 | 1011.3 |
| 20260506042032 | 15 | 101 | 1.6 | 8.0 | 0.00 | 0.00 | 0.00 | 77 | 1011.4 |
| 20260506041538 | 16 | 111 | 1.6 | 12.9 | 0.00 | 0.00 | 0.00 | 77 | 1011.4 |
| 20260506041033 | 16 | 116 | 0.0 | 12.9 | 0.00 | 0.00 | 0.00 | 77 | 1011.4 |
| 20260506040531 | 16 | 113 | 1.6 | 9.7 | 0.00 | 0.00 | 0.00 | 76 | 1011.4 |
| 20260506040050 | 16 | 229 | 3.2 | 9.7 | 0.00 | 0.00 | 0.00 | 76 | 1011.4 |
| 20260506035531 | 16 | 115 | 3.2 | 12.9 | 0.00 | 0.00 | 0.00 | 76 | 1011.4 |
| 20260506035032 | 16 | 118 | 1.6 | 12.9 | 0.00 | 0.00 | 0.00 | 75 | 1011.5 |
| 20260506034543 | 16 | 311 | 1.6 | 11.3 | 0.00 | 0.00 | 0.00 | 75 | 1011.4 |
| 20260506034032 | 16 | 167 | 1.6 | 14.5 | 0.00 | 0.00 | 0.00 | 74 | 1011.4 |
| 20260506033533 | 16 | 251 | 1.6 | 14.5 | 0.00 | 0.00 | 0.00 | 74 | 1011.4 |
| 20260506033039 | 16 | 73 | 1.6 | 9.7 | 0.00 | 0.00 | 0.00 | 73 | 1011.4 |
| 20260506032529 | 16 | 158 | 1.6 | 9.7 | 0.00 | 0.00 | 0.00 | 72 | 1011.5 |
| 20260506032032 | 16 | 139 | 1.6 | 8.0 | 0.00 | 0.00 | 0.00 | 72 | 1011.3 |
| 20260506031552 | 16 | 267 | 1.6 | 17.7 | 0.00 | 0.00 | 0.00 | 71 | 1011.3 |
| 20260506031029 | 16 | 162 | 4.8 | 17.7 | 0.00 | 0.00 | 0.00 | 71 | 1011.3 |
| 20260506030532 | 16 | 208 | 1.6 | 9.7 | 0.00 | 0.00 | 0.00 | 70 | 1011.3 |
| 20260506030043 | 16 | 91 | 3.2 | 16.1 | 0.00 | 0.00 | 0.00 | 70 | 1011.4 |
| 20260506025529 | 17 | 0 | 1.6 | 16.1 | 0.00 | 0.00 | 0.00 | 70 | 1011.3 |
| 20260506025033 | 17 | 245 | 3.2 | 20.9 | 0.00 | 0.00 | 0.00 | 69 | 1011.3 |
| 20260506024546 | 17 | 300 | 3.2 | 20.9 | 0.00 | 0.00 | 0.00 | 69 | 1011.3 |
| 20260506024032 | 17 | 247 | 4.8 | 19.3 | 0.00 | 0.00 | 0.00 | 69 | 1011.2 |
| 20260506023533 | 17 | 216 | 3.2 | 16.1 | 0.00 | 0.00 | 0.00 | 69 | 1011.2 |
| 20260506023054 | 17 | 66 | 4.8 | 19.3 | 0.00 | 0.00 | 0.00 | 69 | 1011.2 |
| 20260506022529 | 17 | 229 | 3.2 | 19.3 | 0.00 | 0.00 | 0.00 | 69 | 1011.3 |
| 20260506022030 | 17 | 226 | 3.2 | 12.9 | 0.00 | 0.00 | 0.00 | 69 | 1011.2 |
| 20260506021551 | 17 | 257 | 1.6 | 12.9 | 0.00 | 0.00 | 0.00 | 69 | 1011.2 |
| 20260506021028 | 16 | 208 | 3.2 | 11.3 | 0.00 | 0.00 | 0.00 | 69 | 1011.2 |
| 20260506020531 | 16 | 131 | 1.6 | 14.5 | 0.00 | 0.00 | 0.00 | 69 | 1011.1 |
| 20260506020044 | 16 | 237 | 0.0 | 14.5 | 0.00 | 0.00 | 0.00 | 70 | 1011.2 |
| 20260506015529 | 16 | 181 | 1.6 | 11.3 | 0.00 | 0.00 | 0.00 | 69 | 1011.2 |
| 20260506015032 | 16 | 91 | 1.6 | 11.3 | 0.00 | 0.00 | 0.00 | 69 | 1011.2 |
| 20260506014543 | 17 | 89 | 0.0 | 11.3 | 0.00 | 0.00 | 0.00 | 69 | 1011.1 |
| 20260506014031 | 17 | 92 | 3.2 | 11.3 | 0.00 | 0.00 | 0.00 | 68 | 1011.0 |
| 20260506013532 | 17 | 250 | 1.6 | 8.0 | 0.00 | 0.00 | 0.00 | 68 | 1010.9 |
| 20260506013045 | 17 | 128 | 1.6 | 9.7 | 0.00 | 0.00 | 0.00 | 68 | 1010.9 |
| 20260506012532 | 17 | 251 | 1.6 | 12.9 | 0.00 | 0.00 | 0.00 | 68 | 1010.8 |
| 20260506012032 | 17 | 137 | 3.2 | 17.7 | 0.00 | 0.00 | 0.00 | 68 | 1010.7 |
| 20260506011546 | 17 | 215 | 3.2 | 17.7 | 0.00 | 0.00 | 0.00 | 68 | 1010.7 |
| 20260506011032 | 17 | 252 | 3.2 | 9.7 | 0.00 | 0.00 | 0.00 | 67 | 1010.7 |
| 20260506010532 | 17 | 158 | 1.6 | 9.7 | 0.00 | 0.00 | 0.00 | 67 | 1010.6 |
| 20260506010053 | 17 | 114 | 0.0 | 12.9 | 0.00 | 0.00 | 0.00 | 67 | 1010.4 |
| 20260506005531 | 17 | 229 | 3.2 | 12.9 | 0.00 | 0.00 | 0.00 | 67 | 1010.4 |
| 20260506005031 | 17 | 82 | 1.6 | 12.9 | 0.00 | 0.00 | 0.00 | 66 | 1010.3 |
| 20260506004544 | 17 | 197 | 1.6 | 12.9 | 0.00 | 0.00 | 0.00 | 66 | 1010.3 |
| 20260506004032 | 17 | 332 | 3.2 | 16.1 | 0.00 | 0.00 | 0.00 | 66 | 1010.2 |
| 20260506003529 | 17 | 255 | 3.2 | 16.1 | 0.00 | 0.00 | 0.00 | 66 | 1010.1 |
| 20260506003043 | 17 | 131 | 1.6 | 9.7 | 0.00 | 0.00 | 0.00 | 66 | 1010.0 |
| 20260506002532 | 17 | 197 | 3.2 | 9.7 | 0.00 | 0.00 | 0.00 | 65 | 1010.0 |
| 20260506002033 | 17 | 141 | 3.2 | 11.3 | 0.00 | 0.00 | 0.00 | 65 | 1009.9 |
| 20260506001541 | 17 | 109 | 1.6 | 12.9 | 0.00 | 0.00 | 0.00 | 64 | 1009.8 |
| 20260506001029 | 17 | 214 | 1.6 | 12.9 | 0.00 | 0.00 | 0.00 | 64 | 1009.8 |